| time (UTC) | temp C | wind direction | speed KPH | gust KPH | rain 1hr cm | rain 24hr cm | rain mn cm | humidity % | barometer mb |
| 20260510075744 | 17 | 187 | 0.0 | 0.0 | 0.00 | 0.00 | 0.00 | 30 | 1019.4 |
| 20260510075238 | 17 | 146 | 0.0 | 0.0 | 0.00 | 0.00 | 0.00 | 29 | 1019.4 |
| 20260510074732 | 17 | 224 | 0.0 | 0.0 | 0.00 | 0.00 | 0.00 | 28 | 1019.4 |
| 20260510074227 | 17 | 213 | 0.0 | 0.0 | 0.00 | 0.00 | 0.00 | 28 | 1019.1 |
| 20260510073722 | 17 | 205 | 0.0 | 0.0 | 0.00 | 0.00 | 0.00 | 28 | 1019.1 |
| 20260510073222 | 17 | 184 | 0.0 | 0.0 | 0.00 | 0.00 | 0.00 | 28 | 1019.4 |
| 20260510073216 | 17 | 197 | 0.0 | 0.0 | 0.00 | 0.00 | 0.00 | 28 | 1019.4 |
| 20260510072205 | 17 | 188 | 0.0 | 0.0 | 0.00 | 0.00 | 0.00 | 27 | 1019.4 |
| 20260510072156 | 17 | 131 | 0.0 | 0.0 | 0.00 | 0.00 | 0.00 | 28 | 1019.1 |
| 20260510071759 | 17 | 194 | 0.0 | 0.0 | 0.00 | 0.00 | 0.00 | 27 | 1019.4 |
| 20260510071257 | 17 | 201 | 0.0 | 0.0 | 0.00 | 0.00 | 0.00 | 26 | 1019.1 |
| 20260510070145 | 17 | 191 | 0.0 | 0.0 | 0.00 | 0.00 | 0.00 | 28 | 1019.4 |
| 20260510065641 | 17 | 208 | 0.0 | 0.0 | 0.00 | 0.00 | 0.00 | 27 | 1019.1 |
| 20260510065134 | 17 | 208 | 0.0 | 0.0 | 0.00 | 0.00 | 0.00 | 26 | 1019.1 |
| 20260510064628 | 17 | 208 | 0.0 | 0.0 | 0.00 | 0.00 | 0.00 | 26 | 1019.1 |
| 20260510064124 | 17 | 219 | 0.0 | 0.0 | 0.00 | 0.00 | 0.00 | 26 | 1019.4 |
| 20260510063620 | 17 | 219 | 0.0 | 0.0 | 0.00 | 0.00 | 0.00 | 26 | 1019.4 |
| 20260510063615 | 17 | 231 | 0.0 | 0.0 | 0.00 | 0.00 | 0.00 | 25 | 1019.1 |
| 20260510062609 | 17 | 258 | 0.0 | 0.0 | 0.00 | 0.00 | 0.00 | 24 | 1019.1 |
| 20260510062103 | 17 | 220 | 0.0 | 0.0 | 0.00 | 0.00 | 0.00 | 24 | 1019.1 |
| 20260510061558 | 18 | 249 | 0.0 | 0.0 | 0.00 | 0.00 | 0.00 | 23 | 1019.1 |
| 20260510061053 | 18 | 232 | 0.0 | 0.0 | 0.00 | 0.00 | 0.00 | 23 | 1019.1 |
| 20260510060549 | 18 | 238 | 0.0 | 0.0 | 0.00 | 0.00 | 0.00 | 23 | 1019.1 |
| 20260510060544 | 18 | 248 | 0.0 | 0.0 | 0.00 | 0.00 | 0.00 | 23 | 1019.1 |
| 20260510055538 | 18 | 243 | 0.0 | 0.0 | 0.00 | 0.00 | 0.00 | 23 | 1019.1 |
| 20260510055031 | 18 | 244 | 0.0 | 0.0 | 0.00 | 0.00 | 0.00 | 23 | 1019.1 |
| 20260510054525 | 18 | 258 | 0.0 | 0.0 | 0.00 | 0.00 | 0.00 | 23 | 1019.1 |
| 20260510054027 | 19 | 243 | 0.0 | 0.0 | 0.00 | 0.00 | 0.00 | 22 | 1019.1 |
| 20260510053515 | 19 | 262 | 0.0 | 0.0 | 0.00 | 0.00 | 0.00 | 22 | 1019.1 |
| 20260510053510 | 20 | 240 | 0.0 | 0.0 | 0.00 | 0.00 | 0.00 | 21 | 1019.1 |
| 20260510052505 | 20 | 270 | 0.0 | 0.0 | 0.00 | 0.00 | 0.00 | 21 | 1019.4 |
| 20260510051958 | 20 | 235 | 0.0 | 0.0 | 0.00 | 0.00 | 0.00 | 23 | 1019.4 |
| 20260510051453 | 20 | 234 | 0.0 | 0.0 | 0.00 | 0.00 | 0.00 | 22 | 1019.4 |
| 20260510050949 | 20 | 291 | 0.0 | 0.0 | 0.00 | 0.00 | 0.00 | 22 | 1019.1 |
| 20260510050443 | 20 | 247 | 0.0 | 0.0 | 0.00 | 0.00 | 0.00 | 22 | 1019.1 |
| 20260510045938 | 21 | 238 | 0.0 | 0.0 | 0.00 | 0.00 | 0.00 | 22 | 1019.1 |
| 20260510045434 | 21 | 230 | 0.0 | 0.0 | 0.00 | 0.00 | 0.00 | 22 | 1019.1 |
| 20260510044928 | 21 | 236 | 0.0 | 0.0 | 0.00 | 0.00 | 0.00 | 21 | 1019.1 |
| 20260510044422 | 21 | 252 | 0.0 | 0.0 | 0.00 | 0.00 | 0.00 | 20 | 1019.1 |
| 20260510043918 | 21 | 272 | 0.0 | 0.0 | 0.00 | 0.00 | 0.00 | 20 | 1019.1 |
| 20260510043412 | 21 | 280 | 0.0 | 0.0 | 0.00 | 0.00 | 0.00 | 20 | 1019.1 |
| 20260510042906 | 21 | 235 | 0.0 | 0.0 | 0.00 | 0.00 | 0.00 | 20 | 1019.1 |
| 20260510042402 | 21 | 231 | 0.0 | 0.0 | 0.00 | 0.00 | 0.00 | 20 | 1019.1 |
| 20260510041855 | 22 | 228 | 0.0 | 0.0 | 0.00 | 0.00 | 0.00 | 20 | 1018.7 |
| 20260510041353 | 22 | 228 | 0.0 | 0.0 | 0.00 | 0.00 | 0.00 | 20 | 1018.7 |
| 20260510041348 | 22 | 215 | 0.0 | 0.0 | 0.00 | 0.00 | 0.00 | 19 | 1019.1 |
| 20260510040340 | 22 | 216 | 0.0 | 0.0 | 0.00 | 0.00 | 0.00 | 18 | 1019.1 |
| 20260510035837 | 22 | 219 | 0.0 | 0.0 | 0.00 | 0.00 | 0.00 | 18 | 1019.1 |
| 20260510035831 | 22 | 220 | 0.0 | 0.0 | 0.00 | 0.00 | 0.00 | 18 | 1019.1 |
| 20260510034824 | 23 | 241 | 0.0 | 0.0 | 0.00 | 0.00 | 0.00 | 18 | 1018.7 |
| 20260510034817 | 23 | 200 | 0.0 | 0.0 | 0.00 | 0.00 | 0.00 | 18 | 1018.7 |
| 20260510034421 | 23 | 214 | 0.0 | 0.0 | 0.00 | 0.00 | 0.00 | 18 | 1018.7 |
| 20260510033309 | 23 | 195 | 0.0 | 0.0 | 0.00 | 0.00 | 0.00 | 16 | 1018.7 |
| 20260510032806 | 24 | 245 | 0.0 | 0.0 | 0.00 | 0.00 | 0.00 | 16 | 1018.7 |
| 20260510032801 | 24 | 244 | 0.0 | 0.0 | 0.00 | 0.00 | 0.00 | 15 | 1018.4 |
| 20260510031752 | 25 | 202 | 0.0 | 0.0 | 0.00 | 0.00 | 0.00 | 14 | 1018.4 |
| 20260510031249 | 25 | 260 | 0.0 | 0.0 | 0.00 | 0.00 | 0.00 | 13 | 1018.4 |
| 20260510030743 | 25 | 185 | 0.0 | 0.0 | 0.00 | 0.00 | 0.00 | 12 | 1018.4 |
| 20260510030236 | 25 | 159 | 0.0 | 0.0 | 0.00 | 0.00 | 0.00 | 11 | 1018.4 |
| 20260510025731 | 25 | 227 | 0.0 | 0.0 | 0.00 | 0.00 | 0.00 | 11 | 1018.0 |
| 20260510025227 | 26 | 256 | 0.0 | 0.0 | 0.00 | 0.00 | 0.00 | 11 | 1018.0 |
| 20260510024721 | 26 | 241 | 0.0 | 0.0 | 0.00 | 0.00 | 0.00 | 10 | 1018.0 |
| 20260510024214 | 26 | 232 | 0.0 | 0.0 | 0.00 | 0.00 | 0.00 | 10 | 1018.4 |
| 20260510023711 | 26 | 213 | 0.0 | 0.0 | 0.00 | 0.00 | 0.00 | 10 | 1018.0 |
| 20260510023205 | 26 | 189 | 0.0 | 0.0 | 0.00 | 0.00 | 0.00 | 10 | 1018.0 |
| 20260510022659 | 27 | 242 | 0.0 | 0.0 | 0.00 | 0.00 | 0.00 | 10 | 1018.0 |
| 20260510022155 | 27 | 334 | 0.0 | 0.0 | 0.00 | 0.00 | 0.00 | 10 | 1018.0 |
| 20260510021648 | 27 | 251 | 0.0 | 0.0 | 0.00 | 0.00 | 0.00 | 10 | 1018.0 |
| 20260510021143 | 27 | 221 | 0.0 | 0.0 | 0.00 | 0.00 | 0.00 | 10 | 1018.0 |
| 20260510020639 | 27 | 195 | 0.0 | 0.0 | 0.00 | 0.00 | 0.00 | 10 | 1018.0 |
| 20260510020133 | 27 | 267 | 0.0 | 1.6 | 0.00 | 0.00 | 0.00 | 10 | 1018.0 |
| 20260510015628 | 27 | 249 | 0.0 | 1.6 | 0.00 | 0.00 | 0.00 | 10 | 1018.0 |
| 20260510015123 | 27 | 291 | 0.0 | 1.6 | 0.00 | 0.00 | 0.00 | 10 | 1018.0 |
| 20260510014617 | 27 | 237 | 0.0 | 1.6 | 0.00 | 0.00 | 0.00 | 10 | 1018.0 |
| 20260510014111 | 27 | 87 | 0.0 | 1.6 | 0.00 | 0.00 | 0.00 | 10 | 1018.4 |
| 20260510013608 | 28 | 190 | 0.0 | 1.6 | 0.00 | 0.00 | 0.00 | 10 | 1018.4 |
| 20260510013101 | 28 | 323 | 0.0 | 1.6 | 0.00 | 0.00 | 0.00 | 10 | 1018.4 |
| 20260510012556 | 28 | 235 | 0.0 | 0.0 | 0.00 | 0.00 | 0.00 | 10 | 1018.4 |
| 20260510012052 | 28 | 214 | 0.0 | 0.0 | 0.00 | 0.00 | 0.00 | 12 | 1018.0 |
| 20260510011545 | 28 | 276 | 0.0 | 1.6 | 0.00 | 0.00 | 0.00 | 12 | 1018.4 |
| 20260510011040 | 28 | 265 | 0.0 | 1.6 | 0.00 | 0.00 | 0.00 | 12 | 1018.4 |
| 20260510010536 | 28 | 222 | 0.0 | 1.6 | 0.00 | 0.00 | 0.00 | 12 | 1018.4 |
| 20260510010030 | 28 | 230 | 0.0 | 1.6 | 0.00 | 0.00 | 0.00 | 12 | 1018.4 |
| 20260510005524 | 28 | 232 | 0.0 | 3.2 | 0.00 | 0.00 | 0.00 | 12 | 1018.4 |
| 20260510005020 | 28 | 302 | 0.0 | 3.2 | 0.00 | 0.00 | 0.00 | 12 | 1018.4 |
| 20260510004515 | 28 | 339 | 0.0 | 3.2 | 0.00 | 0.00 | 0.00 | 12 | 1018.4 |
| 20260510004509 | 28 | 317 | 0.0 | 1.6 | 0.00 | 0.00 | 0.00 | 12 | 1018.4 |
| 20260510004125 | 28 | 357 | 0.0 | 1.6 | 0.00 | 0.00 | 0.00 | 12 | 1018.7 |
| 20260510003458 | 28 | 332 | 0.0 | 1.6 | 0.00 | 0.00 | 0.00 | 12 | 1018.4 |
| 20260510002453 | 29 | 197 | 0.0 | 1.6 | 0.00 | 0.00 | 0.00 | 12 | 1018.7 |
| 20260510001949 | 29 | 292 | 0.0 | 3.2 | 0.00 | 0.00 | 0.00 | 12 | 1018.4 |
| 20260510001942 | 29 | 314 | 0.0 | 3.2 | 0.00 | 0.00 | 0.00 | 11 | 1018.4 |
| 20260510000938 | 29 | 276 | 0.0 | 1.6 | 0.00 | 0.00 | 0.00 | 11 | 1018.4 |
| 20260510000933 | 29 | 306 | 0.0 | 3.2 | 0.00 | 0.00 | 0.00 | 11 | 1018.4 |
| 20260509235926 | 29 | 292 | 0.0 | 3.2 | 0.00 | 0.00 | 0.00 | 11 | 1018.4 |
| 20260509235420 | 30 | 300 | 0.0 | 3.2 | 0.00 | 0.00 | 0.00 | 11 | 1018.4 |
| 20260509234915 | 30 | 210 | 0.0 | 1.6 | 0.00 | 0.00 | 0.00 | 11 | 1018.4 |
| 20260509234409 | 30 | 198 | 0.0 | 3.2 | 0.00 | 0.00 | 0.00 | 11 | 1018.4 |
| 20260509233904 | 30 | 329 | 0.0 | 3.2 | 0.00 | 0.00 | 0.00 | 11 | 1018.7 |
| 20260509233400 | 30 | 265 | 0.0 | 4.8 | 0.00 | 0.00 | 0.00 | 11 | 1018.7 |
| 20260509232854 | 30 | 286 | 0.0 | 4.8 | 0.00 | 0.00 | 0.00 | 10 | 1018.7 |
| 20260509232350 | 30 | 276 | 0.0 | 3.2 | 0.00 | 0.00 | 0.00 | 10 | 1018.4 |
| 20260509232344 | 30 | 4 | 0.0 | 3.2 | 0.00 | 0.00 | 0.00 | 10 | 1018.4 |
| 20260509231337 | 30 | 260 | 0.0 | 4.8 | 0.00 | 0.00 | 0.00 | 10 | 1018.7 |
| 20260509230833 | 31 | 228 | 0.0 | 4.8 | 0.00 | 0.00 | 0.00 | 10 | 1018.4 |
| 20260509230328 | 31 | 265 | 0.0 | 6.4 | 0.00 | 0.00 | 0.00 | 10 | 1018.7 |
| 20260509225822 | 31 | 276 | 0.0 | 6.4 | 0.00 | 0.00 | 0.00 | 10 | 1018.7 |
| 20260509225317 | 31 | 259 | 0.0 | 4.8 | 0.00 | 0.00 | 0.00 | 10 | 1018.7 |
| 20260509224813 | 31 | 346 | 0.0 | 3.2 | 0.00 | 0.00 | 0.00 | 10 | 1018.7 |
| 20260509224307 | 31 | 269 | 0.0 | 4.8 | 0.00 | 0.00 | 0.00 | 10 | 1018.7 |
| 20260509223800 | 31 | 272 | 0.0 | 4.8 | 0.00 | 0.00 | 0.00 | 10 | 1018.7 |
| 20260509223257 | 31 | 324 | 0.0 | 3.2 | 0.00 | 0.00 | 0.00 | 10 | 1019.1 |
| 20260509222750 | 31 | 21 | 0.0 | 1.6 | 0.00 | 0.00 | 0.00 | 10 | 1019.1 |
| 20260509222245 | 31 | 141 | 0.0 | 1.6 | 0.00 | 0.00 | 0.00 | 10 | 1018.7 |
| 20260509222238 | 31 | 247 | 0.0 | 3.2 | 0.00 | 0.00 | 0.00 | 10 | 1019.1 |
| 20260509221844 | 31 | 288 | 0.0 | 1.6 | 0.00 | 0.00 | 0.00 | 10 | 1019.1 |
| 20260509220730 | 31 | 353 | 0.0 | 3.2 | 0.00 | 0.00 | 0.00 | 10 | 1019.1 |
| 20260509220238 | 30 | 291 | 0.0 | 3.2 | 0.00 | 0.00 | 0.00 | 10 | 1019.1 |
| 20260509220225 | 31 | 214 | 0.0 | 3.2 | 0.00 | 0.00 | 0.00 | 10 | 1019.4 |
| 20260509215214 | 30 | 336 | 0.0 | 3.2 | 0.00 | 0.00 | 0.00 | 10 | 1019.4 |
| 20260509214710 | 30 | 274 | 0.0 | 3.2 | 0.00 | 0.00 | 0.00 | 10 | 1019.4 |
| 20260509214203 | 30 | 250 | 0.0 | 4.8 | 0.00 | 0.00 | 0.00 | 10 | 1019.4 |
| 20260509213657 | 30 | 330 | 0.0 | 4.8 | 0.00 | 0.00 | 0.00 | 10 | 1019.4 |
| 20260509213153 | 30 | 315 | 0.0 | 3.2 | 0.00 | 0.00 | 0.00 | 10 | 1019.7 |
| 20260509212647 | 30 | 281 | 0.0 | 3.2 | 0.00 | 0.00 | 0.00 | 10 | 1019.7 |
| 20260509212142 | 29 | 95 | 0.0 | 1.6 | 0.00 | 0.00 | 0.00 | 10 | 1019.7 |
| 20260509211639 | 29 | 223 | 0.0 | 3.2 | 0.00 | 0.00 | 0.00 | 10 | 1019.7 |
| 20260509211633 | 29 | 69 | 0.0 | 1.6 | 0.00 | 0.00 | 0.00 | 11 | 1019.7 |
| 20260509210625 | 29 | 171 | 0.0 | 3.2 | 0.00 | 0.00 | 0.00 | 11 | 1019.7 |
| 20260509210122 | 29 | 43 | 1.6 | 3.2 | 0.00 | 0.00 | 0.00 | 11 | 1019.7 |
| 20260509210116 | 29 | 348 | 0.0 | 1.6 | 0.00 | 0.00 | 0.00 | 11 | 1019.7 |
| 20260509205109 | 29 | 35 | 0.0 | 1.6 | 0.00 | 0.00 | 0.00 | 11 | 1020.1 |
| 20260509204606 | 29 | 306 | 0.0 | 1.6 | 0.00 | 0.00 | 0.00 | 11 | 1020.1 |
| 20260509204600 | 29 | 262 | 0.0 | 4.8 | 0.00 | 0.00 | 0.00 | 11 | 1020.4 |
| 20260509203553 | 29 | 58 | 0.0 | 4.8 | 0.00 | 0.00 | 0.00 | 11 | 1020.4 |
| 20260509203049 | 29 | 241 | 0.0 | 3.2 | 0.00 | 0.00 | 0.00 | 12 | 1020.4 |
| 20260509202543 | 29 | 284 | 0.0 | 1.6 | 0.00 | 0.00 | 0.00 | 11 | 1020.1 |
| 20260509202040 | 29 | 30 | 0.0 | 3.2 | 0.00 | 0.00 | 0.00 | 11 | 1020.7 |
| 20260509202035 | 29 | 254 | 0.0 | 3.2 | 0.00 | 0.00 | 0.00 | 10 | 1020.4 |
| 20260509201027 | 29 | 240 | 0.0 | 3.2 | 0.00 | 0.00 | 0.00 | 11 | 1020.4 |
| 20260509200521 | 30 | 302 | 0.0 | 1.6 | 0.00 | 0.00 | 0.00 | 10 | 1020.7 |
| 20260509200017 | 29 | 101 | 0.0 | 1.6 | 0.00 | 0.00 | 0.00 | 11 | 1020.7 |
| 20260509195511 | 29 | 334 | 0.0 | 1.6 | 0.00 | 0.00 | 0.00 | 10 | 1020.4 |
| 20260509195006 | 29 | 348 | 0.0 | 3.2 | 0.00 | 0.00 | 0.00 | 11 | 1020.4 |
| 20260509194501 | 29 | 334 | 0.0 | 3.2 | 0.00 | 0.00 | 0.00 | 11 | 1020.7 |
| 20260509193956 | 29 | 0 | 0.0 | 0.0 | 0.00 | 0.00 | 0.00 | 10 | 1020.7 |
| 20260509193452 | 28 | 267 | 0.0 | 0.0 | 0.00 | 0.00 | 0.00 | 10 | 1020.7 |
| 20260509193447 | 28 | 255 | 0.0 | 0.0 | 0.00 | 0.00 | 0.00 | 11 | 1020.7 |
| 20260509192440 | 28 | 6 | 0.0 | 0.0 | 0.00 | 0.00 | 0.00 | 11 | 1020.7 |
| 20260509191934 | 28 | 347 | 0.0 | 1.6 | 0.00 | 0.00 | 0.00 | 12 | 1021.1 |
| 20260509191431 | 28 | 211 | 0.0 | 1.6 | 0.00 | 0.00 | 0.00 | 11 | 1020.7 |
| 20260509190923 | 28 | 224 | 0.0 | 1.6 | 0.00 | 0.00 | 0.00 | 12 | 1021.1 |
| 20260509190419 | 28 | 265 | 0.0 | 0.0 | 0.00 | 0.00 | 0.00 | 11 | 1020.7 |
| 20260509185917 | 28 | 82 | 0.0 | 3.2 | 0.00 | 0.00 | 0.00 | 11 | 1021.1 |
| 20260509185407 | 28 | 324 | 0.0 | 3.2 | 0.00 | 0.00 | 0.00 | 12 | 1021.1 |
| 20260509184902 | 27 | 287 | 0.0 | 1.6 | 0.00 | 0.00 | 0.00 | 12 | 1021.4 |
| 20260509184400 | 27 | 98 | 0.0 | 0.0 | 0.00 | 0.00 | 0.00 | 12 | 1021.4 |
| 20260509184354 | 27 | 68 | 0.0 | 0.0 | 0.00 | 0.00 | 0.00 | 12 | 1021.4 |
| 20260509183349 | 27 | 232 | 0.0 | 0.0 | 0.00 | 0.00 | 0.00 | 12 | 1021.4 |
| 20260509183343 | 27 | 280 | 0.0 | 0.0 | 0.00 | 0.00 | 0.00 | 12 | 1021.4 |
| 20260509182336 | 26 | 111 | 0.0 | 3.2 | 0.00 | 0.00 | 0.00 | 10 | 1021.1 |
| 20260509181831 | 26 | 87 | 0.0 | 3.2 | 0.00 | 0.00 | 0.00 | 12 | 1021.4 |
| 20260509181326 | 26 | 204 | 0.0 | 0.0 | 0.00 | 0.00 | 0.00 | 10 | 1021.4 |
| 20260509180820 | 26 | 105 | 0.0 | 1.6 | 0.00 | 0.00 | 0.00 | 10 | 1021.4 |
| 20260509180314 | 25 | 147 | 0.0 | 1.6 | 0.00 | 0.00 | 0.00 | 10 | 1021.4 |
| 20260509175809 | 25 | 299 | 0.0 | 0.0 | 0.00 | 0.00 | 0.00 | 10 | 1021.4 |
| 20260509175306 | 25 | 307 | 0.0 | 0.0 | 0.00 | 0.00 | 0.00 | 10 | 1021.8 |
| 20260509174758 | 25 | 171 | 0.0 | 0.0 | 0.00 | 0.00 | 0.00 | 10 | 1021.8 |
| 20260509174256 | 25 | 285 | 0.0 | 1.6 | 0.00 | 0.00 | 0.00 | 10 | 1021.8 |
| 20260509173748 | 25 | 243 | 0.0 | 1.6 | 0.00 | 0.00 | 0.00 | 10 | 1021.8 |
| 20260509173242 | 25 | 250 | 0.0 | 0.0 | 0.00 | 0.00 | 0.00 | 11 | 1021.4 |
| 20260509172738 | 25 | 17 | 0.0 | 1.6 | 0.00 | 0.00 | 0.00 | 10 | 1021.8 |
| 20260509172233 | 25 | 189 | 0.0 | 1.6 | 0.00 | 0.00 | 0.00 | 11 | 1021.4 |
| 20260509172228 | 24 | 333 | 0.0 | 0.0 | 0.00 | 0.00 | 0.00 | 10 | 1021.4 |
| 20260509171222 | 24 | 229 | 0.0 | 0.0 | 0.00 | 0.00 | 0.00 | 12 | 1021.4 |
| 20260509170716 | 24 | 268 | 0.0 | 0.0 | 0.00 | 0.00 | 0.00 | 12 | 1021.4 |
| 20260509170211 | 24 | 50 | 0.0 | 0.0 | 0.00 | 0.00 | 0.00 | 12 | 1021.8 |
| 20260509165707 | 24 | 334 | 0.0 | 1.6 | 0.00 | 0.00 | 0.00 | 13 | 1021.8 |
| 20260509165200 | 24 | 301 | 0.0 | 1.6 | 0.00 | 0.00 | 0.00 | 13 | 1021.8 |
| 20260509164655 | 24 | 105 | 0.0 | 0.0 | 0.00 | 0.00 | 0.00 | 12 | 1021.8 |
| 20260509164151 | 24 | 256 | 0.0 | 0.0 | 0.00 | 0.00 | 0.00 | 12 | 1021.8 |
| 20260509163644 | 24 | 270 | 0.0 | 0.0 | 0.00 | 0.00 | 0.00 | 11 | 1021.8 |
| 20260509163138 | 24 | 42 | 0.0 | 0.0 | 0.00 | 0.00 | 0.00 | 12 | 1021.8 |
| 20260509162635 | 24 | 222 | 0.0 | 0.0 | 0.00 | 0.00 | 0.00 | 13 | 1021.8 |
| 20260509162626 | 24 | 353 | 0.0 | 0.0 | 0.00 | 0.00 | 0.00 | 13 | 1021.8 |
| 20260509162231 | 24 | 291 | 0.0 | 0.0 | 0.00 | 0.00 | 0.00 | 13 | 1021.4 |
| 20260509161119 | 23 | 258 | 0.0 | 0.0 | 0.00 | 0.00 | 0.00 | 12 | 1021.8 |
| 20260509160613 | 23 | 226 | 0.0 | 0.0 | 0.00 | 0.00 | 0.00 | 12 | 1021.8 |
| 20260509160608 | 23 | 202 | 0.0 | 0.0 | 0.00 | 0.00 | 0.00 | 10 | 1021.8 |
| 20260509155603 | 23 | 209 | 0.0 | 0.0 | 0.00 | 0.00 | 0.00 | 12 | 1021.8 |
| 20260509155057 | 22 | 254 | 0.0 | 0.0 | 0.00 | 0.00 | 0.00 | 14 | 1021.8 |
| 20260509154551 | 22 | 223 | 0.0 | 0.0 | 0.00 | 0.00 | 0.00 | 16 | 1021.8 |
| 20260509154048 | 22 | 227 | 0.0 | 0.0 | 0.00 | 0.00 | 0.00 | 18 | 1021.8 |
| 20260509153542 | 21 | 222 | 0.0 | 0.0 | 0.00 | 0.00 | 0.00 | 15 | 1021.8 |
| 20260509153036 | 21 | 80 | 0.0 | 0.0 | 0.00 | 0.00 | 0.00 | 18 | 1021.4 |
| 20260509152531 | 21 | 203 | 0.0 | 0.0 | 0.00 | 0.00 | 0.00 | 18 | 1021.8 |
| 20260509152025 | 20 | 217 | 0.0 | 0.0 | 0.00 | 0.00 | 0.00 | 19 | 1021.8 |
| 20260509151520 | 20 | 297 | 0.0 | 0.0 | 0.00 | 0.00 | 0.00 | 19 | 1021.8 |
| 20260509151015 | 20 | 195 | 0.0 | 0.0 | 0.00 | 0.00 | 0.00 | 23 | 1021.8 |
| 20260509151009 | 19 | 264 | 0.0 | 0.0 | 0.00 | 0.00 | 0.00 | 20 | 1021.8 |
| 20260509150003 | 18 | 145 | 0.0 | 0.0 | 0.00 | 0.00 | 0.00 | 22 | 1021.8 |
| 20260509145501 | 18 | 292 | 0.0 | 0.0 | 0.00 | 0.00 | 0.00 | 25 | 1021.8 |
| 20260509144954 | 17 | 25 | 0.0 | 0.0 | 0.00 | 0.00 | 0.00 | 23 | 1021.8 |
| 20260509144948 | 16 | 289 | 0.0 | 0.0 | 0.00 | 0.00 | 0.00 | 24 | 1021.4 |
| 20260509143943 | 16 | 167 | 0.0 | 0.0 | 0.00 | 0.00 | 0.00 | 24 | 1021.4 |
| 20260509143438 | 15 | 215 | 0.0 | 0.0 | 0.00 | 0.00 | 0.00 | 25 | 1021.4 |
| 20260509143433 | 14 | 216 | 0.0 | 0.0 | 0.00 | 0.00 | 0.00 | 30 | 1021.4 |
| 20260509142427 | 13 | 216 | 0.0 | 0.0 | 0.00 | 0.00 | 0.00 | 40 | 1021.4 |
| 20260509141921 | 13 | 213 | 0.0 | 0.0 | 0.00 | 0.00 | 0.00 | 42 | 1021.4 |
| 20260509141415 | 13 | 270 | 0.0 | 0.0 | 0.00 | 0.00 | 0.00 | 44 | 1021.4 |
| 20260509140912 | 13 | 219 | 0.0 | 0.0 | 0.00 | 0.00 | 0.00 | 45 | 1021.4 |
| 20260509140405 | 12 | 242 | 0.0 | 0.0 | 0.00 | 0.00 | 0.00 | 47 | 1021.4 |
| 20260509135900 | 12 | 233 | 0.0 | 0.0 | 0.00 | 0.00 | 0.00 | 48 | 1021.4 |
| 20260509135356 | 12 | 234 | 0.0 | 0.0 | 0.00 | 0.00 | 0.00 | 48 | 1021.4 |
| 20260509134850 | 12 | 260 | 0.0 | 0.0 | 0.00 | 0.00 | 0.00 | 48 | 1021.4 |